User: anonymous
Location: Caltech
(34.1382°N, 118.1253°W)
Time: 12:42:18
(UTC-07:00)
Language:

ASTRO E2 - Orbit

View from above orbital plane
View from above orbital plane
View from above satellite
View from above satellite

Ground track
Ground track

The orbit data is extracted from the following two-line orbital elements,

1 28773U 05025A   14260.58531854  .00005520  00000-0  33175-3 0  3630
2 28773 031.3838 303.5565 0005091 028.7122 102.9718 15.09440174505169
Epoch (UTC): 17 September 2014 14:02:51
Eccentricity: 0.0005091
inclination: 31.3838°
perigee height: 534 km
apogee height: 541 km
right ascension of ascending node: 303.5565°
argument of perigee: 28.7122°
revolutions per day: 15.09440174
mean anomaly at epoch: 102.9718°
orbit number at epoch: 50516

The dashed part of the orbit path shows where the satellite is in the earth's shadow,  

DLR